CAPE
0 245 416 700 923 1372 198 207 131 64 57 19 3 70 183 248 639 514 226 256 402 645 767 1171 1323 1637 1709 1798 1936 1732 1929 1993 2052 2049 2047 2147 2096 2052 1883 1973 1906 1866 1790 1554 1479 1346 1355 1117 902
30 385 821 1125 1039 686 174 122 74 67 18 5 44 86 171 288 124 121 236 291 571 636 970 889 1583 1713 1848 1669 1821 1908 1942 2080 2153 1989 1870 1975 2109 1894 2181 2062 2130 1927 1891 1702 1486 1313 1104 1168 1222
296 217 880 893 707 414 94 70 65 19 8 69 154 210 439 109 77 112 203 335 498 882 1016 1394 1514 1669 1229 1386 1625 1648 1887 1912 1899 1940 1382 1583 1729 1826 2054 2019 1859 1853 1829 1898 1664 1233 1147 979 878
297 441 630 776 311 117 115 119 39 49 188 180 291 419 226 161 230 215 187 233 460 651 1060 1344 1102 1449 1393 1734 1534 1372 1980 2039 1531 1549 1715 1797 1899 1905 1912 1823 1645 1513 1464 1430 1344 1298 851 1026 843
495 351 1020 610 156 227 194 67 23 107 268 281 301 416 256 126 141 171 262 190 177 279 554 1314 1425 1483 1607 1692 1394 1498 1965 1689 1790 1827 1971 1980 1891 1661 1452 1184 1027 971 935 955 940 1061 545 226 401
697 301 558 399 85 64 52 83 33 126 36 291 186 134 195 82 43 113 51 37 37 182 246 203 1267 1447 1261 1234 1275 1550 1813 1649 1535 1586 1587 1526 1429 1437 1515 1583 1713 1761 1680 1799 1641 654 203 187 156
417 312 624 439 165 115 117 109 22 44 55 196 121 120 70 22 16 17 11 18 8 6 191 661 1213 1227 1675 1485 1271 1337 1445 1617 1519 1474 1509 1470 1702 1827 1736 1783 1693 1656 1915 1819 1543 1006 1003 630 617
603 50 381 412 384 188 415 350 291 9 164 237 306 161 4 11 6 2 2 13 2 0 185 489 614 349 367 433 841 1069 1435 1420 1493 1521 1519 1669 1768 1728 1535 1217 1395 2127 1413 1663 1811 1793 1471 1051 1364
422 30 43 209 345 596 506 565 669 373 315 397 336 85 0 2 2 0 4 6 3 1 139 162 135 320 453 396 955 1316 1382 1655 1690 1577 1609 1847 2327 2069 2146 1321 2157 1863 1850 2003 2127 2211 2062 1273 1339
260 11 4 7 148 391 324 449 381 259 277 398 158 33 0 0 0 0 3 1 0 0 7 15 81 304 741 801 1755 1643 1743 1630 2022 2010 2184 2319 2159 1984 1649 1649 2187 2178 2424 2231 2285 2773 2860 2109 1153
69 17 4 0 91 250 392 319 388 396 67 418 188 21 0 0 0 0 2 0 0 0 0 2 70 409 697 1616 1541 1602 1112 1868 1874 2357 2868 2393 2111 2801 2413 2506 2389 2486 3024 2228 2087 2384 2542 2548 1810
19 0 7 9 51 252 440 400 405 360 326 397 236 56 0 0 0 0 0 0 0 0 2 3 44 370 1409 704 1085 1264 1224 1878 1843 1835 2530 2757 1424 1933 2993 2052 1958 3067 2120 1682 1289 2019 2273 1556 1834
24 5 5 50 103 334 242 341 388 517 487 592 373 108 4 0 0 0 0 0 0 0 0 1 295 1131 1240 1017 1364 1789 779 790 1012 1341 2028 2100 1419 2139 2135 1677 1345 2795 2470 1464 2028 2264 2274 2233 1607
7 43 13 9 21 61 62 71 82 82 274 602 484 212 51 0 0 0 0 0 0 0 0 266 904 1167 1402 1568 1341 1347 1056 1338 858 1428 2132 2599 2212 2489 2003 3202 1157 1133 1757 2213 2695 2641 2812 2246 2067
0 147 236 56 80 81 84 106 211 144 353 664 600 431 217 9 0 0 0 0 0 0 0 440 862 1248 1504 1624 1452 1402 1039 844 1140 1662 2335 2298 2498 2570 3635 1098 1167 1206 2415 2405 2211 1728 1438 1111 1477
0 183 188 265 94 176 134 75 519 427 520 755 787 678 458 77 7 13 2 0 0 0 5 512 644 1136 1208 1356 1322 1157 974 876 1258 1450 2027 2372 2387 2969 3124 1224 1388 1133 1024 1017 1084 803 390 896 1264
1 252 74 40 329 141 91 36 433 714 506 722 927 802 630 210 27 68 17 0 0 0 169 663 841 881 1074 1619 1464 1355 1588 1085 1185 1183 1551 2006 2524 2366 3160 1872 1750 971 238 267 270 929 689 1330 1137
57 164 60 1 169 374 107 82 563 729 905 544 957 877 770 385 79 69 44 0 0 0 314 748 868 1139 1541 1574 1592 1195 1335 1021 1102 1166 1831 2400 1993 1774 3180 1843 2006 1756 750 258 754 2158 1352 1101 1276
19 3 204 81 104 521 230 168 382 576 830 880 788 993 900 619 214 127 133 1 0 0 321 894 1189 2610 1951 1480 1115 1141 1002 1060 1072 1726 2021 1605 1370 1687 2566 1938 2498 2183 1657 1255 1192 490 906 1012 1669
8 3 74 47 215 100 177 104 545 694 592 862 904 864 933 835 398 303 307 137 0 0 122 877 1257 1981 1966 1435 2100 1287 1401 937 1009 1456 1526 1281 1827 2508 2428 2577 2225 3060 2768 2568 1343 726 18 0 579
19 12 54 58 14 9 55 40 48 459 512 527 877 876 930 841 684 458 461 373 94 0 0 594 1617 1979 2478 2554 1497 1959 1713 1821 1461 1782 1627 1532 1826 2449 2747 2755 2733 2809 2816 2073 815 153 90 0 0
27 8 27 32 2 35 3 105 24 128 218 467 734 902 952 960 849 633 564 458 162 17 1 442 1552 2685 2133 2822 2215 3695 1653 1353 966 1432 1822 1483 1673 2019 2376 2605 3050 3398 2463 2278 1221 520 0 654 0
17 49 45 26 31 49 38 16 111 122 263 319 573 747 922 1011 956 738 666 548 390 64 0 341 2371 2561 3027 3008 2964 2148 2573 1065 1100 1155 2643 2365 2506 2043 2006 2611 2949 3056 2758 3019 2032 1349 433 0 8
22 46 53 62 63 104 76 110 146 99 69 202 324 690 879 1064 1067 950 726 695 515 395 51 299 2646 3513 3042 2836 2325 3329 3451 2891 1394 1974 1857 1361 1540 2057 2224 2675 2884 3055 3598 2981 2610 1594 995 483 53
36 90 109 87 80 78 92 157 158 91 45 123 375 493 567 706 1015 1064 916 783 684 556 492 420 2535 3345 2579 1900 2136 2075 2712 3046 2419 2500 1691 2113 1042 1051 3069 2897 3285 3659 3566 3312 3107 2448 1471 942 330
43 89 106 94 113 110 62 124 151 72 18 0 1 150 230 392 610 967 1047 932 731 577 610 507 2352 3290 2874 2510 3020 2977 3461 1973 2176 2715 1252 1096 981 1176 3925 3022 3183 3302 3469 3413 3384 2912 1762 1420 980
62 105 42 83 127 187 151 104 116 10 5 3 0 0 12 16 57 662 1021 1069 904 646 656 534 1937 2738 2717 2222 3164 3500 3313 3486 2303 3604 3466 1672 2588 1664 2695 2564 2817 2941 3458 3365 3533 3103 2749 2064 1617
11 66 82 75 132 150 159 94 156 94 7 3 0 44 8 0 280 407 929 1128 1051 831 672 703 703 1977 1844 1794 2538 2887 2993 3318 3677 4048 3651 3319 3458 2312 3062 2390 2540 2862 3209 3304 3338 2855 3177 2855 2217
0 4 87 87 92 121 186 175 105 60 76 30 22 8 0 94 561 999 957 1136 1122 927 693 756 748 1468 2082 2651 2799 3064 2224 2769 3176 2959 3224 3296 3288 3921 2826 2824 2824 2918 3126 3328 3426 3086 3035 3134 2921
0 3 16 53 23 74 112 151 76 65 33 0 0 6 0 0 179 1043 1031 1084 1144 1050 826 729 1316 1500 2379 3136 3574 3205 2022 2532 2399 3277 2924 2816 3587 3014 3036 2918 3040 3008 3097 3291 3374 3181 2347 2594 2777
CIN
-0 -1 -0 -0 -0 -0 -0 -3 -34 -0 -0 -0 -1 -7 -16 -23 -0 -0 -1 -0 -0 -1 -0 -0 -0 -0 -0 -0 -0 -0 -0 -0 -0 -0 -0 -0 -0 -0 -0 -0 -0 -0 -0 -0 -0 -0 -0 -0 -1
-16 -0 -0 -0 -0 -0 -1 -17 -38 -0 -10 -7 -8 -16 -17 -11 -40 -29 -3 -0 -0 -1 -0 -0 -0 -0 -0 -0 -0 -0 -0 -0 -0 -0 -0 -0 -0 -0 -0 -0 -0 -0 -0 -0 -0 -0 -0 -1 -0
-21 -4 -0 -1 -8 -0 -1 -42 -75 -9 -14 -54 -17 -4 -0 -37 -34 -25 -5 -0 -0 -12 -3 -0 -0 -0 -2 -6 -0 -0 -0 -0 -1 -0 -11 -0 -0 -0 -0 -0 -0 -0 -0 -0 -1 -2 -3 -5 -9
-16 -0 -1 -4 -1 -3 -17 -15 -11 -33 -14 -1 -1 -0 -10 -24 -0 -8 -6 -2 -1 -0 -0 -2 -2 -0 -0 -0 -2 -2 -0 -0 -0 -3 -0 -0 -0 -0 -0 -0 -0 -2 -0 -1 -5 -4 -0 -0 -11
-3 -1 -4 -10 -1 -0 -5 -69 -9 -17 -0 -0 -0 -0 -11 -31 -21 -21 -5 -10 -7 -1 -0 -0 -0 -0 -0 -0 -0 -0 -0 -0 -0 -0 -0 -0 -0 -11 -23 -30 -31 -28 -21 -12 -11 -11 -25 -33 -18
-1 -15 -14 -1 -4 -12 -0 -42 -5 -9 -54 -0 -8 -46 -23 -40 -27 -29 -8 -31 -1 -8 -2 -41 -1 -0 -4 -3 -0 -0 -0 -0 -8 -7 -10 -14 -35 -36 -26 -19 -17 -11 -8 -5 -30 -53 -71 -52 -22
-1 -3 -2 -0 -0 -1 -4 -13 -24 -16 -40 -13 -30 -29 -35 -12 -0 -0 -0 -0 -0 -6 -8 -0 -0 -1 -0 -0 -0 -0 -5 -4 -9 -23 -27 -42 -39 -27 -26 -28 -29 -22 -10 -5 -19 -48 -10 -11 -9
-1 -0 -2 -0 -0 -1 -0 -7 -0 -37 -8 -9 -8 -19 -14 -0 -0 -0 -0 -0 -0 -0 -7 -1 -0 -2 -10 -25 -31 -25 -13 -22 -23 -34 -40 -46 -42 -35 -37 -66 -47 -19 -34 -15 -6 -3 -8 -15 -4
-13 -8 -4 -13 -4 -0 -0 -0 -0 -18 -11 -1 -5 -32 -0 -0 -0 -0 -0 -0 -0 -0 -17 -13 -15 -3 -1 -17 -16 -32 -32 -25 -36 -35 -46 -46 -54 -1 -9 -39 -31 -26 -31 -24 -21 -16 -18 -53 -39
-121 -22 -0 -4 -4 -0 -2 -1 -13 -16 -16 -1 -20 -38 -0 -0 -0 -0 -0 -0 -0 -0 -17 -17 -12 -1 -0 -0 -6 -21 -4 -40 -12 -1 -0 -39 -3 -2 -3 -19 -44 -36 -38 -52 -53 -50 -36 -43 -50
-11 -0 -24 -1 -25 -0 -22 -21 -1 -3 -71 -0 -9 -92 -0 -0 -0 -0 -0 -0 -0 -0 -0 -0 -19 -0 -0 -4 -11 -29 -0 -0 -0 -0 -0 -0 -0 -11 -34 -5 -6 -15 -52 -19 -52 -40 -35 -47 -3
-29 -0 -2 -14 -19 -8 -5 -2 -10 -43 -46 -1 -9 -89 -0 -0 -0 -0 -0 -0 -0 -0 -0 -0 -55 -0 -1 -0 -23 -3 -32 -29 -9 -0 -4 -1 -0 -0 -8 -5 -4 -7 -1 -6 -92 -14 -4 -1 -0
-11 -2 -8 -0 -32 -1 -3 -0 -1 -0 -0 -0 -13 -52 -45 -0 -0 -0 -0 -0 -0 -0 -0 -0 -39 -0 -0 -0 -0 -3 -1 -0 -0 -0 -1 -18 -0 -52 -1 -11 -18 -7 -27 -7 -1 -2 -11 -49 -1
-0 -52 -5 -1 -3 -0 -1 -0 -0 -1 -2 -0 -8 -17 -77 -0 -0 -0 -0 -0 -0 -0 -0 -18 -0 -0 -0 -0 -0 -0 -0 -1 -0 -0 -0 -1 -1 -1 -125 -5 -0 -0 -73 -44 -1 -5 -0 -55 -24
-0 -1 -1 -4 -0 -1 -35 -7 -0 -4 -0 -0 -0 -0 -3 -100 -0 -0 -0 -0 -0 -0 -0 -5 -0 -0 -0 -0 -0 -0 -5 -0 -0 -0 -0 -0 -0 -1 -67 -0 -0 -0 -0 -4 -2 -2 -2 -0 -0
-0 -27 -15 -2 -28 -34 -58 -3 -3 -4 -0 -0 -0 -0 -0 -24 -88 -74 -55 -0 -0 -0 -8 -0 -0 -0 -0 -0 -0 -1 -0 -0 -0 -0 -0 -0 -2 -0 -64 -0 -0 -0 -0 -0 -1 -3 -12 -0 -0
-0 -39 -98 -18 -11 -41 -45 -0 -12 -9 -7 -0 -0 -0 -0 -7 -106 -88 -88 -0 -0 -0 -40 -0 -0 -0 -0 -0 -0 -0 -2 -1 -0 -0 -0 -0 -0 -3 -0 -0 -0 -3 -60 -72 -72 -22 -14 -1 -0
-0 -0 -67 -6 -4 -27 -34 -113 -3 -5 -0 -2 -0 -0 -0 -4 -39 -71 -86 -0 -0 -0 -30 -0 -0 -0 -0 -0 -0 -0 -0 -1 -0 -0 -0 -0 -0 -3 -1 -0 -0 -0 -17 -101 -80 -3 -10 -0 -1
-11 -12 -32 -46 -172 -32 -9 -45 -0 -8 -0 -0 -0 -0 -0 -1 -15 -47 -54 -5 -0 -0 -49 -0 -0 -0 -0 -0 -0 -0 -0 -0 -0 -0 -0 -2 -1 -0 -4 -0 -0 -3 -2 -46 -52 -86 -57 -26 -6
-2 -0 -3 -0 -7 -6 -1 -0 -2 -6 -1 -0 -2 -9 -3 -0 -12 -23 -33 -63 -0 -0 -106 -3 -0 -0 -0 -0 -0 -0 -0 -0 -0 -0 -0 -0 -0 -0 -0 -0 -0 -1 -0 -0 -72 -114 -21 -0 -79
-0 -0 -1 -0 -0 -23 -5 -14 -1 -1 -13 -1 -0 -2 -9 -12 -16 -32 -46 -65 -114 -73 -0 -38 -0 -0 -0 -0 -0 -1 -0 -1 -0 -0 -0 -0 -0 -0 -0 -0 -0 -4 -0 -4 -104 -97 -98 -0 -0
-0 -0 -0 -7 -0 -5 -0 -3 -4 -2 -5 -6 -0 -1 -15 -25 -26 -42 -61 -67 -94 -241 -91 -50 -0 -0 -0 -0 -0 -0 -0 -0 -0 -0 -0 -2 -1 -0 -0 -0 -0 -1 -0 -1 -65 -165 -0 -162 -0
-0 -2 -2 -4 -26 -0 -1 -2 -0 -1 -9 -13 -0 -0 -4 -25 -34 -46 -75 -96 -85 -153 -20 -98 -0 -0 -0 -0 -2 -0 -0 -0 -0 -0 -3 -1 -4 -0 -1 -0 -0 -0 -0 -0 -31 -102 -232 -0 -5
-0 -4 -7 -2 -4 -0 -1 -0 -0 -0 -0 -1 -0 -1 -9 -10 -20 -26 -43 -59 -62 -72 -180 -131 -0 -0 -0 -0 -7 -0 -0 -1 -1 -0 -0 -12 -3 -5 -6 -0 -0 -0 -0 -0 -5 -99 -194 -285 -364
-0 -0 -0 -1 -1 -0 -0 -0 -2 -5 -2 -5 -0 -3 -7 -14 -13 -15 -27 -49 -74 -68 -67 -113 -0 -0 -0 -0 -0 -0 -0 -2 -0 -2 -9 -5 -13 -18 -16 -10 -0 -0 -0 -0 -0 -39 -152 -226 -314
-0 -0 -0 -1 -0 -0 -7 -0 -0 -3 -1 -0 -1 -3 -0 -3 -12 -14 -27 -56 -103 -96 -67 -92 -0 -0 -0 -0 -0 -0 -0 -0 -4 -0 -21 -35 -12 -11 -7 -12 -0 -0 -0 -0 -0 -12 -109 -197 -237
-0 -0 -0 -0 -0 -0 -0 -0 -0 -24 -40 -43 -0 -4 -1 -0 -23 -18 -20 -40 -73 -108 -88 -100 -1 -0 -0 -0 -0 -0 -0 -0 -5 -0 -4 -31 -2 -7 -15 -21 -7 -4 -0 -0 -0 -3 -25 -110 -169
-0 -1 -0 -0 -1 -0 -0 -2 -1 -1 -22 -24 -0 -2 -9 -0 -19 -9 -37 -36 -60 -75 -79 -75 -52 -3 -9 -8 -0 -0 -0 -0 -0 -0 -0 -0 -0 -32 -5 -39 -17 -9 -2 -4 -1 -8 -10 -41 -90
-0 -0 -1 -0 -0 -1 -0 -0 -5 -1 -1 -6 -27 -94 -0 -29 -26 -20 -36 -47 -66 -65 -85 -73 -51 -14 -0 -0 -0 -0 -22 -7 -0 -0 -0 -0 -0 -5 -44 -41 -25 -14 -7 -6 -6 -16 -8 -19 -42
-0 -0 -0 -0 -0 -0 -0 -0 -5 -1 -10 -0 -0 -0 -0 -0 -38 -33 -39 -47 -69 -80 -104 -94 -12 -13 -1 -0 -0 -0 -41 -13 -12 -0 -9 -20 -1 -38 -55 -52 -32 -19 -13 -8 -8 -14 -41 -33 -38
Wind_Speed
nan 14 14 21 20 17 11 13 12 nan nan nan nan nan 11 15 11 6 14 10 16 14 15 18 11 15 12 7 7 8 9 8 6 6 6 7 4 6 7 7 9 11 11 11 10 10 10 7 3
nan 5 10 17 18 9 14 11 nan nan nan nan nan nan 4 10 2 12 9 14 16 15 14 17 10 12 12 9 7 8 10 9 4 3 2 6 5 4 4 7 8 7 3 5 7 9 11 7 7
9 13 13 17 18 11 nan nan nan nan nan nan 7 11 13 1 nan 2 13 15 14 15 15 13 10 10 13 11 8 8 10 10 3 1 3 4 2 3 3 4 8 7 2 4 4 4 7 11 8
13 12 20 20 13 17 12 11 nan nan 13 9 8 9 8 4 2 12 16 14 14 19 15 12 9 10 12 8 7 7 9 7 4 6 6 6 7 7 9 11 12 10 7 7 7 10 9 9 7
24 22 19 14 18 17 17 nan nan 7 7 12 8 9 7 4 12 14 15 16 15 10 14 13 10 10 11 8 10 9 8 4 5 6 8 9 8 13 16 18 18 16 13 12 9 6 7 6 10
20 12 13 12 nan nan nan nan nan 10 nan 5 13 12 4 nan nan 13 nan nan nan 13 12 13 13 11 11 12 11 11 8 5 6 6 9 11 15 18 21 23 24 25 20 18 12 14 14 12 9
16 18 9 14 15 13 16 13 nan nan nan 7 8 11 nan nan nan nan nan nan nan nan 13 14 15 14 12 13 12 13 11 9 9 9 10 15 19 20 21 26 28 33 29 27 28 32 26 21 19
16 nan 11 7 17 15 16 13 21 nan 5 9 3 2 nan nan nan nan nan nan nan nan 13 13 14 17 17 17 15 17 17 17 14 9 14 25 22 21 23 29 26 31 33 33 36 34 33 30 27
8 nan nan 20 15 21 13 16 18 6 6 5 8 nan nan nan nan nan nan nan nan nan 10 11 16 17 12 14 18 24 28 32 35 34 33 34 28 21 22 15 20 20 24 27 31 33 32 29 29
9 nan nan nan 26 12 17 11 15 11 9 12 10 nan nan nan nan nan nan nan nan nan nan nan nan 11 14 14 19 29 21 30 27 29 33 30 20 21 15 19 24 23 24 24 28 31 29 31 23
nan nan nan nan nan 16 22 6 9 16 nan 8 15 nan nan nan nan nan nan nan nan nan nan nan nan 17 10 11 20 19 22 20 19 24 24 23 20 22 27 21 25 25 29 27 28 23 26 30 21
nan nan nan nan nan 17 14 7 17 23 14 13 18 nan nan nan nan nan nan nan nan nan nan nan nan 12 9 12 20 15 17 21 22 17 24 20 20 19 24 22 19 25 19 27 8 17 16 16 17
nan nan nan nan 14 6 3 16 14 18 14 20 15 10 nan nan nan nan nan nan nan nan nan nan 6 10 8 19 14 18 17 12 14 15 24 17 18 9 18 22 16 22 24 18 18 12 20 11 13
nan nan nan nan nan nan nan nan nan nan 14 18 15 12 nan nan nan nan nan nan nan nan nan 6 6 7 9 12 15 18 12 16 13 11 14 19 17 18 26 20 16 17 20 17 12 13 15 12 18
nan 6 18 nan nan nan nan 14 13 15 13 19 15 12 11 nan nan nan nan nan nan nan nan 5 5 6 11 9 13 15 17 10 10 10 12 13 13 18 23 13 14 14 12 12 11 14 9 6 3
nan 8 16 19 nan 2 36 nan 28 15 12 16 17 12 11 nan nan nan nan nan nan nan nan 5 4 2 9 11 15 14 13 11 10 9 8 9 12 17 20 9 9 14 12 8 7 9 5 6 1
nan 24 nan nan 25 16 nan nan 26 12 10 12 14 17 12 13 nan nan nan nan nan nan 5 6 1 1 9 11 13 13 15 14 12 12 7 11 11 15 16 10 6 7 5 6 4 4 3 3 4
nan 26 nan nan 24 6 36 nan 22 16 16 16 14 16 16 16 nan nan nan nan nan nan 5 4 2 2 7 11 12 11 15 14 12 13 9 9 5 9 15 3 7 7 3 1 3 5 3 1 3
nan nan 24 nan 28 25 10 29 20 17 15 19 17 17 16 14 13 13 9 nan nan nan 7 3 4 4 7 10 11 12 11 12 12 11 9 6 6 5 13 4 10 2 5 4 4 9 2 5 2
nan nan nan nan 23 17 2 5 29 15 12 16 14 15 14 15 14 10 6 8 nan nan 7 2 3 3 6 9 15 12 12 11 9 10 6 6 5 6 5 11 6 13 4 3 5 10 nan nan 2
nan nan nan nan nan nan nan nan nan 26 11 9 13 15 14 15 16 14 13 7 nan nan nan 3 3 1 4 8 14 18 17 15 13 9 5 5 7 8 7 8 8 8 9 2 5 10 nan nan nan
nan nan nan nan nan nan nan 5 nan 19 20 13 14 16 16 17 16 15 14 14 7 nan nan 6 2 4 4 8 10 12 14 12 9 8 11 7 8 9 9 6 5 11 5 9 8 10 nan 17 nan
nan nan nan nan nan nan nan nan 17 7 15 15 15 15 15 16 17 19 18 16 13 nan nan 8 6 3 6 5 14 11 16 14 12 11 10 14 10 13 11 8 5 7 6 6 9 10 13 nan nan
nan nan nan nan nan 12 nan 7 4 nan nan 20 18 12 11 15 19 20 23 21 16 12 nan 12 11 6 5 4 5 11 12 20 12 13 11 11 10 8 11 8 8 7 5 8 9 11 11 14 nan
nan nan 13 nan nan nan nan 8 14 nan nan 17 25 19 11 11 17 21 21 22 20 17 13 12 13 9 5 3 3 7 13 14 15 13 14 13 12 12 7 9 9 7 6 8 11 11 14 16 17
nan nan 21 nan 10 10 nan 14 10 nan nan nan nan 5 22 19 13 19 24 21 23 21 16 12 13 10 7 4 7 8 11 12 15 13 15 14 14 11 10 8 8 8 7 8 10 13 10 11 16
nan 22 nan nan 14 15 9 17 7 nan nan nan nan nan nan nan nan 18 24 25 22 21 18 13 15 12 7 5 10 10 11 12 9 11 15 15 16 13 8 6 6 6 5 8 8 10 9 10 16
nan nan nan nan 20 18 14 nan 13 nan nan nan nan nan nan nan 20 14 18 25 22 20 20 14 11 14 8 6 8 9 9 9 12 12 11 13 10 11 7 5 5 4 4 6 8 8 6 7 12
nan nan nan nan nan 20 18 15 16 nan nan nan nan nan nan nan 28 13 15 20 23 22 21 12 9 14 11 9 10 9 8 8 8 9 9 9 9 5 5 3 3 2 3 5 6 10 9 7 10
nan nan nan nan nan nan 21 18 nan nan nan nan nan nan nan nan 32 18 11 19 24 20 17 11 8 10 15 13 11 10 9 9 6 7 7 7 7 5 2 2 1 1 1 3 5 7 10 6 10
Wind_Direction
nan 59 96 135 126 126 163 173 195 nan nan nan nan nan 217 171 162 123 10 340 353 330 347 5 19 0 351 350 5 356 345 339 314 288 282 216 243 291 333 340 330 295 278 269 246 232 233 228 224
nan 132 114 129 137 172 176 217 nan nan nan nan nan nan 168 196 266 333 344 354 340 344 360 352 8 0 352 349 14 3 358 339 328 297 169 197 229 279 320 325 345 337 295 242 212 211 222 219 193
101 154 158 150 148 177 nan nan nan nan nan nan 202 200 173 111 nan 336 326 2 338 342 354 343 7 356 2 354 352 14 7 356 353 103 182 242 150 53 7 16 30 35 40 138 161 198 221 209 198
111 123 129 146 176 227 224 229 nan nan 217 172 247 232 212 292 284 336 345 351 339 6 331 356 6 11 1 357 347 10 12 37 113 134 131 111 90 64 67 71 55 45 59 102 170 202 211 218 195
99 119 142 150 233 236 228 nan nan 239 203 209 176 253 251 177 285 336 342 353 349 344 342 352 2 3 349 11 7 14 26 57 115 106 108 102 99 82 83 74 61 61 77 89 108 134 194 185 202
123 101 149 201 nan nan nan nan nan 232 nan 202 254 290 236 nan nan 335 nan nan nan 341 353 5 3 2 2 11 19 36 57 59 85 105 106 107 95 90 85 76 72 74 81 63 77 93 93 92 121
120 132 200 243 241 237 245 241 nan nan nan 233 305 273 nan nan nan nan nan nan nan nan 6 9 6 1 16 25 36 48 62 77 76 87 108 96 94 90 85 80 74 73 79 77 64 74 77 80 99
134 nan 155 231 232 238 246 238 238 nan 227 257 278 276 nan nan nan nan nan nan nan nan 18 23 4 13 29 34 50 59 66 72 66 82 111 96 100 84 73 68 67 71 70 75 76 83 77 86 98
184 nan nan 216 211 231 247 268 232 216 220 203 193 nan nan nan nan nan nan nan nan nan 37 20 16 27 35 46 54 63 67 81 64 70 98 101 92 73 60 78 82 76 69 68 71 73 71 75 81
263 nan nan nan 226 234 243 228 248 265 231 264 279 nan nan nan nan nan nan nan nan nan nan nan nan 20 47 66 68 77 82 85 82 92 93 90 101 106 97 76 71 73 69 60 60 60 56 54 72
nan nan nan nan nan 204 250 200 256 271 nan 299 289 nan nan nan nan nan nan nan nan nan nan nan nan 52 67 110 89 105 103 96 86 87 94 98 85 78 77 76 74 74 59 76 62 70 74 67 86
nan nan nan nan nan 230 267 273 254 228 214 297 294 nan nan nan nan nan nan nan nan nan nan nan nan 78 98 88 97 81 89 88 86 95 83 89 97 90 98 101 85 89 98 94 170 92 94 84 105
nan nan nan nan 249 249 328 263 257 264 285 276 298 318 nan nan nan nan nan nan nan nan nan nan 34 106 129 112 125 102 82 90 80 87 109 103 106 107 106 93 100 109 115 91 107 101 90 79 59
nan nan nan nan nan nan nan nan nan nan 262 274 298 314 nan nan nan nan nan nan nan nan nan 331 32 112 119 153 116 105 127 86 90 97 103 111 101 107 92 86 101 108 83 123 116 104 97 54 77
nan 309 320 nan nan nan nan 262 254 269 275 282 300 313 312 nan nan nan nan nan nan nan nan 352 358 94 128 136 115 112 95 107 102 119 111 112 113 106 99 115 126 121 93 84 79 81 76 91 64
nan 302 163 308 nan 306 222 nan 251 281 303 289 297 302 308 nan nan nan nan nan nan nan nan 26 34 117 130 137 133 129 133 110 109 106 113 83 82 114 119 128 139 121 120 109 113 112 95 75 139
nan 264 nan nan 115 277 nan nan 105 309 303 310 310 293 307 311 nan nan nan nan nan nan 341 60 357 88 143 149 135 151 145 123 144 125 131 127 136 127 125 150 125 118 128 130 91 65 47 57 1
nan 280 nan nan 133 20 319 nan 1 332 326 327 324 312 309 315 nan nan nan nan nan nan 330 77 112 207 161 156 156 157 135 146 136 141 175 122 136 132 129 197 133 136 141 163 149 137 136 33 142
nan nan 282 nan 211 108 164 246 303 322 332 323 328 330 332 324 318 314 311 nan nan nan 325 31 92 221 158 175 148 167 156 157 153 184 170 114 111 103 114 63 73 75 144 153 38 10 14 299 281
nan nan nan nan 312 172 55 263 300 322 344 323 337 344 346 341 329 318 334 301 nan nan 325 357 93 300 135 175 159 164 163 159 170 193 170 148 134 110 140 127 136 130 11 73 60 79 nan nan 70
nan nan nan nan nan nan nan nan nan 306 319 355 344 341 348 356 349 346 321 292 nan nan nan 282 134 195 116 164 162 176 182 193 180 201 148 137 139 140 138 138 134 101 118 73 70 67 nan nan nan
nan nan nan nan nan nan nan 122 nan 299 313 338 353 353 345 357 353 343 337 320 296 nan nan 284 219 171 159 162 176 180 180 173 175 172 191 164 146 134 128 129 152 145 154 118 74 72 nan 79 nan
nan nan nan nan nan nan nan nan 300 324 303 312 340 351 350 350 356 349 348 331 333 nan nan 286 255 213 182 180 168 192 156 164 185 176 182 161 159 135 147 150 137 131 143 106 92 82 86 nan nan
nan nan nan nan nan 219 nan 199 221 nan nan 310 313 323 345 349 356 356 345 346 336 313 nan 299 283 252 197 205 159 179 171 161 174 172 168 156 158 151 146 162 151 148 111 100 91 75 79 79 nan
nan nan 235 nan nan nan nan 250 174 nan nan 212 300 304 316 335 346 350 345 351 352 337 304 286 282 280 264 224 189 174 172 172 175 181 163 170 179 171 192 150 129 105 107 83 70 74 71 82 87
nan nan 212 nan 224 240 nan 194 238 nan nan nan nan 262 314 329 340 346 350 349 350 357 320 290 274 270 274 248 202 206 185 188 173 177 176 176 175 190 210 147 127 111 93 76 67 58 78 82 70
nan 225 nan nan 173 200 251 301 213 nan nan nan nan nan nan nan nan 334 341 343 343 351 335 300 262 254 257 248 225 211 203 173 190 185 176 179 174 200 185 142 122 108 88 86 75 87 94 78 68
nan nan nan nan 187 188 200 nan 229 nan nan nan nan nan nan nan 213 307 328 336 326 343 331 301 263 257 243 247 241 230 216 198 178 193 214 176 198 163 224 152 146 138 103 86 89 102 78 77 67
nan nan nan nan nan 196 200 209 238 nan nan nan nan nan nan nan 220 228 307 313 317 332 333 309 271 265 249 238 243 241 234 217 195 191 216 203 183 208 157 179 168 155 103 79 87 120 133 84 69
nan nan nan nan nan nan 195 203 nan nan nan nan nan nan nan nan 212 228 274 308 309 326 331 327 275 264 260 249 239 249 245 235 224 181 214 233 210 194 185 124 116 143 112 100 78 107 129 91 73